| time (UTC) | temp F | wind direction | speed MPH | gust MPH | rain 1hr in | rain 24hr in | rain mn in | humidity % | barometer mb |
| 20260503195224 | 55 | 334 | 5.0 | 12.0 | 0.00 | 0.00 | 0.00 | 44 | 1004.6 |
| 20260503194723 | 54 | 196 | 6.0 | 16.0 | 0.00 | 0.00 | 0.00 | 46 | 1004.6 |
| 20260503194230 | 55 | 280 | 5.0 | 15.0 | 0.00 | 0.00 | 0.00 | 47 | 1004.6 |
| 20260503194224 | 54 | 300 | 5.0 | 16.0 | 0.00 | 0.00 | 0.00 | 45 | 1004.6 |
| 20260503193724 | 55 | 281 | 5.0 | 15.0 | 0.00 | 0.00 | 0.00 | 48 | 1004.6 |
| 20260503193344 | 55 | 313 | 5.0 | 13.0 | 0.00 | 0.00 | 0.00 | 47 | 1004.6 |
| 20260503192225 | 55 | 314 | 5.0 | 13.0 | 0.00 | 0.00 | 0.00 | 47 | 1004.6 |
| 20260503191723 | 54 | 270 | 5.0 | 11.0 | 0.00 | 0.00 | 0.00 | 47 | 1004.8 |
| 20260503191222 | 54 | 339 | 5.0 | 11.0 | 0.00 | 0.00 | 0.00 | 50 | 1004.8 |
| 20260503190723 | 53 | 294 | 4.0 | 11.0 | 0.00 | 0.00 | 0.00 | 50 | 1004.8 |
| 20260503190223 | 53 | 301 | 3.0 | 7.0 | 0.00 | 0.00 | 0.00 | 52 | 1004.8 |
| 20260503185722 | 52 | 306 | 5.0 | 12.0 | 0.00 | 0.00 | 0.00 | 52 | 1004.8 |
| 20260503185223 | 52 | 315 | 6.0 | 16.0 | 0.00 | 0.00 | 0.00 | 51 | 1004.9 |
| 20260503184720 | 53 | 317 | 4.0 | 16.0 | 0.00 | 0.00 | 0.00 | 51 | 1004.9 |
| 20260503184221 | 53 | 311 | 3.0 | 9.0 | 0.00 | 0.00 | 0.00 | 52 | 1004.8 |
| 20260503183720 | 53 | 313 | 5.0 | 15.0 | 0.00 | 0.00 | 0.00 | 52 | 1004.8 |
| 20260503183221 | 53 | 339 | 7.0 | 18.0 | 0.00 | 0.00 | 0.00 | 52 | 1004.9 |
| 20260503182720 | 53 | 322 | 7.0 | 18.0 | 0.00 | 0.00 | 0.00 | 52 | 1004.8 |
| 20260503182226 | 53 | 273 | 6.0 | 15.0 | 0.00 | 0.00 | 0.00 | 51 | 1004.7 |
| 20260503182220 | 53 | 287 | 6.0 | 14.0 | 0.00 | 0.00 | 0.00 | 50 | 1004.8 |
| 20260503181219 | 53 | 311 | 5.0 | 15.0 | 0.00 | 0.00 | 0.00 | 50 | 1004.7 |
| 20260503180729 | 52 | 303 | 5.0 | 15.0 | 0.00 | 0.00 | 0.00 | 54 | 1004.8 |
| 20260503180720 | 53 | 309 | 4.0 | 12.0 | 0.00 | 0.00 | 0.00 | 52 | 1004.8 |
| 20260503180221 | 53 | 315 | 5.0 | 12.0 | 0.00 | 0.00 | 0.00 | 53 | 1004.7 |
| 20260503175219 | 52 | 333 | 4.0 | 15.0 | 0.00 | 0.00 | 0.00 | 53 | 1004.7 |
| 20260503174721 | 51 | 327 | 3.0 | 10.0 | 0.00 | 0.00 | 0.00 | 54 | 1004.7 |
| 20260503174221 | 51 | 319 | 3.0 | 8.0 | 0.00 | 0.00 | 0.00 | 56 | 1004.8 |
| 20260503173723 | 51 | 230 | 6.0 | 18.0 | 0.00 | 0.00 | 0.00 | 56 | 1004.8 |
| 20260503173718 | 51 | 309 | 5.0 | 18.0 | 0.00 | 0.00 | 0.00 | 55 | 1004.8 |
| 20260503173219 | 51 | 311 | 6.0 | 18.0 | 0.00 | 0.00 | 0.00 | 55 | 1004.8 |
| 20260503172217 | 51 | 325 | 6.0 | 18.0 | 0.00 | 0.00 | 0.00 | 59 | 1004.8 |
| 20260503171718 | 51 | 276 | 5.0 | 12.0 | 0.00 | 0.00 | 0.00 | 60 | 1004.8 |
| 20260503171220 | 51 | 308 | 5.0 | 12.0 | 0.00 | 0.00 | 0.00 | 62 | 1004.8 |
| 20260503170719 | 51 | 328 | 5.0 | 15.0 | 0.00 | 0.00 | 0.00 | 62 | 1004.8 |
| 20260503170219 | 51 | 324 | 6.0 | 15.0 | 0.00 | 0.00 | 0.00 | 63 | 1004.8 |
| 20260503160216 | 50 | 306 | 6.0 | 15.0 | 0.00 | 0.00 | 0.00 | 71 | 1004.4 |
| 20260503150212 | 48 | 343 | 6.0 | 16.0 | 0.00 | 0.00 | 0.00 | 76 | 1004.6 |
| 20260503140208 | 47 | 230 | 5.0 | 14.0 | 0.00 | 0.00 | 0.00 | 77 | 1004.4 |
| 20260503131324 | 47 | 304 | 5.0 | 10.0 | 0.00 | 0.00 | 0.00 | 75 | 1004.7 |
| 20260503130206 | 47 | 294 | 5.0 | 13.0 | 0.00 | 0.00 | 0.00 | 74 | 1004.6 |
| 20260503120204 | 46 | 323 | 5.0 | 12.0 | 0.00 | 0.00 | 0.00 | 76 | 1005.1 |
| 20260503120158 | 47 | 296 | 4.0 | 10.0 | 0.00 | 0.00 | 0.00 | 76 | 1005.0 |
| 20260503110654 | 45 | 321 | 3.0 | 9.0 | 0.00 | 0.00 | 0.00 | 78 | 1005.3 |
| 20260503110155 | 46 | 285 | 2.0 | 7.0 | 0.00 | 0.00 | 0.00 | 78 | 1005.4 |
| 20260503100154 | 46 | 265 | 3.0 | 8.0 | 0.00 | 0.00 | 0.00 | 78 | 1005.3 |
| 20260503090150 | 47 | 288 | 2.0 | 8.0 | 0.00 | 0.00 | 0.00 | 79 | 1005.6 |
| 20260503080644 | 48 | 301 | 2.0 | 5.0 | 0.00 | 0.00 | 0.00 | 78 | 1006.1 |
| 20260503080144 | 48 | 302 | 2.0 | 5.0 | 0.00 | 0.00 | 0.00 | 78 | 1006.3 |
| 20260503072759 | 48 | 302 | 3.0 | 8.0 | 0.00 | 0.00 | 0.00 | 75 | 1006.7 |
| 20260503071643 | 49 | 319 | 3.0 | 8.0 | 0.00 | 0.00 | 0.00 | 74 | 1006.7 |
| 20260503071142 | 49 | 302 | 3.0 | 8.0 | 0.00 | 0.00 | 0.00 | 74 | 1006.8 |
| 20260503070649 | 49 | 292 | 3.0 | 7.0 | 0.00 | 0.00 | 0.00 | 74 | 1006.9 |
| 20260503070642 | 49 | 276 | 3.0 | 8.0 | 0.00 | 0.00 | 0.00 | 74 | 1006.9 |
| 20260503060141 | 50 | 316 | 3.0 | 9.0 | 0.00 | 0.00 | 0.00 | 69 | 1007.5 |
| 20260503054638 | 50 | 304 | 3.0 | 8.0 | 0.00 | 0.00 | 0.00 | 72 | 1007.7 |
| 20260503054139 | 50 | 261 | 3.0 | 7.0 | 0.00 | 0.00 | 0.00 | 74 | 1007.8 |
| 20260503053640 | 50 | 251 | 3.0 | 8.0 | 0.00 | 0.00 | 0.00 | 76 | 1007.7 |
| 20260503053138 | 50 | 322 | 3.0 | 8.0 | 0.00 | 0.00 | 0.00 | 78 | 1007.6 |
| 20260503052639 | 51 | 298 | 4.0 | 10.0 | 0.00 | 0.00 | 0.00 | 80 | 1007.7 |
| 20260503052140 | 51 | 321 | 4.0 | 10.0 | 0.00 | 0.00 | 0.00 | 81 | 1007.8 |
| 20260503051645 | 50 | 296 | 3.0 | 9.0 | 0.00 | 0.00 | 0.00 | 84 | 1007.8 |
| 20260503051638 | 50 | 273 | 3.0 | 8.0 | 0.00 | 0.00 | 0.00 | 82 | 1007.8 |
| 20260503050636 | 50 | 304 | 3.0 | 9.0 | 0.00 | 0.00 | 0.00 | 85 | 1007.9 |
| 20260503050137 | 50 | 313 | 2.0 | 6.0 | 0.00 | 0.00 | 0.00 | 88 | 1008.1 |
| 20260503045638 | 50 | 296 | 2.0 | 5.0 | 0.00 | 0.00 | 0.00 | 88 | 1008.1 |
| 20260503045133 | 50 | 317 | 2.0 | 4.0 | 0.00 | 0.00 | 0.00 | 89 | 1008.3 |
| 20260503044635 | 50 | 305 | 1.0 | 3.0 | 0.00 | 0.00 | 0.00 | 89 | 1008.2 |
| 20260503044141 | 50 | 315 | 1.0 | 2.0 | 0.00 | 0.00 | 0.00 | 90 | 1008.3 |
| 20260503044134 | 50 | 277 | 1.0 | 3.0 | 0.00 | 0.00 | 0.00 | 89 | 1008.2 |
| 20260503043133 | 50 | 319 | 0.0 | 1.0 | 0.00 | 0.00 | 0.00 | 90 | 1008.4 |
| 20260503042632 | 50 | 319 | 0.0 | 1.0 | 0.00 | 0.00 | 0.00 | 89 | 1008.5 |
| 20260503042129 | 50 | 319 | 0.0 | 1.0 | 0.00 | 0.00 | 0.00 | 89 | 1008.6 |
| 20260503041630 | 50 | 319 | 0.0 | 1.0 | 0.00 | 0.00 | 0.00 | 90 | 1008.7 |
| 20260503041129 | 50 | 319 | 0.0 | 1.0 | 0.00 | 0.00 | 0.00 | 89 | 1008.9 |
| 20260503040630 | 50 | 319 | 0.0 | 1.0 | 0.00 | 0.00 | 0.00 | 89 | 1008.8 |
| 20260503040129 | 50 | 319 | 0.0 | 1.0 | 0.00 | 0.00 | 0.00 | 89 | 1008.6 |
| 20260503035630 | 50 | 319 | 0.0 | 0.0 | 0.00 | 0.00 | 0.00 | 89 | 1008.7 |
| 20260503035131 | 50 | 319 | 0.0 | 0.0 | 0.00 | 0.00 | 0.00 | 89 | 1008.7 |
| 20260503034630 | 50 | 319 | 0.0 | 0.0 | 0.00 | 0.00 | 0.00 | 89 | 1008.9 |
| 20260503034130 | 50 | 319 | 0.0 | 0.0 | 0.00 | 0.00 | 0.00 | 89 | 1008.9 |
| 20260503033636 | 50 | 319 | 0.0 | 2.0 | 0.00 | 0.00 | 0.00 | 89 | 1008.9 |
| 20260503033631 | 50 | 319 | 0.0 | 2.0 | 0.00 | 0.00 | 0.00 | 89 | 1008.8 |
| 20260503032631 | 50 | 319 | 0.0 | 2.0 | 0.00 | 0.00 | 0.00 | 89 | 1008.9 |
| 20260503032132 | 51 | 319 | 0.0 | 1.0 | 0.00 | 0.00 | 0.00 | 89 | 1009.0 |
| 20260503031629 | 51 | 319 | 0.0 | 2.0 | 0.00 | 0.00 | 0.00 | 89 | 1008.9 |
| 20260503031131 | 51 | 319 | 0.0 | 2.0 | 0.00 | 0.00 | 0.00 | 89 | 1009.0 |
| 20260503030631 | 50 | 319 | 0.0 | 2.0 | 0.00 | 0.00 | 0.00 | 89 | 1008.9 |
| 20260503030130 | 50 | 319 | 0.0 | 1.0 | 0.00 | 0.00 | 0.00 | 88 | 1008.9 |
| 20260503025629 | 50 | 319 | 0.0 | 1.0 | 0.00 | 0.00 | 0.00 | 88 | 1008.9 |
| 20260503025135 | 50 | 319 | 0.0 | 1.0 | 0.00 | 0.00 | 0.00 | 88 | 1008.9 |
| 20260503025128 | 50 | 319 | 0.0 | 1.0 | 0.00 | 0.00 | 0.00 | 88 | 1009.0 |
| 20260503024129 | 50 | 319 | 0.0 | 0.0 | 0.00 | 0.00 | 0.00 | 87 | 1009.1 |
| 20260503023632 | 51 | 319 | 0.0 | 0.0 | 0.00 | 0.00 | 0.00 | 87 | 1009.0 |
| 20260503023626 | 51 | 319 | 0.0 | 0.0 | 0.00 | 0.00 | 0.00 | 87 | 1009.0 |
| 20260503022626 | 51 | 319 | 0.0 | 1.0 | 0.00 | 0.00 | 0.00 | 87 | 1009.0 |
| 20260503022133 | 51 | 319 | 0.0 | 1.0 | 0.00 | 0.00 | 0.00 | 86 | 1009.1 |
| 20260503022126 | 51 | 319 | 0.0 | 1.0 | 0.00 | 0.00 | 0.00 | 87 | 1009.0 |
| 20260503021628 | 51 | 319 | 0.0 | 1.0 | 0.00 | 0.00 | 0.00 | 86 | 1009.0 |
| 20260503020626 | 51 | 319 | 0.0 | 1.0 | 0.00 | 0.00 | 0.00 | 86 | 1009.1 |
| 20260503020125 | 51 | 319 | 0.0 | 1.0 | 0.00 | 0.00 | 0.00 | 86 | 1009.3 |
| 20260503015633 | 51 | 319 | 0.0 | 1.0 | 0.00 | 0.00 | 0.00 | 86 | 1009.3 |
| 20260503015628 | 51 | 319 | 0.0 | 0.0 | 0.00 | 0.00 | 0.00 | 86 | 1009.4 |
| 20260503014624 | 51 | 319 | 0.0 | 1.0 | 0.00 | 0.00 | 0.00 | 86 | 1009.3 |
| 20260503014124 | 51 | 319 | 0.0 | 1.0 | 0.00 | 0.00 | 0.00 | 86 | 1009.4 |
| 20260503013624 | 51 | 319 | 0.0 | 1.0 | 0.00 | 0.00 | 0.00 | 85 | 1009.4 |
| 20260503013123 | 51 | 319 | 0.0 | 1.0 | 0.00 | 0.00 | 0.00 | 85 | 1009.4 |
| 20260503012623 | 51 | 319 | 0.0 | 1.0 | 0.00 | 0.00 | 0.00 | 85 | 1009.3 |
| 20260503012123 | 51 | 319 | 0.0 | 1.0 | 0.00 | 0.00 | 0.00 | 85 | 1009.4 |
| 20260503011629 | 51 | 319 | 0.0 | 1.0 | 0.00 | 0.00 | 0.00 | 85 | 1009.4 |
| 20260503011624 | 51 | 319 | 0.0 | 1.0 | 0.00 | 0.00 | 0.00 | 85 | 1009.4 |
| 20260503010628 | 51 | 319 | 0.0 | 1.0 | 0.00 | 0.00 | 0.00 | 84 | 1009.4 |
| 20260503010622 | 51 | 319 | 0.0 | 1.0 | 0.00 | 0.00 | 0.00 | 85 | 1009.4 |
| 20260503005619 | 51 | 319 | 0.0 | 1.0 | 0.00 | 0.00 | 0.00 | 84 | 1009.4 |
| 20260503005125 | 51 | 319 | 0.0 | 1.0 | 0.00 | 0.00 | 0.00 | 84 | 1009.2 |
| 20260503005119 | 51 | 319 | 0.0 | 1.0 | 0.00 | 0.00 | 0.00 | 84 | 1009.3 |
| 20260503004118 | 52 | 319 | 0.0 | 1.0 | 0.00 | 0.00 | 0.00 | 84 | 1009.2 |
| 20260503003617 | 52 | 319 | 0.0 | 1.0 | 0.00 | 0.00 | 0.00 | 84 | 1009.2 |
| 20260503003115 | 52 | 319 | 0.0 | 1.0 | 0.00 | 0.00 | 0.00 | 84 | 1009.2 |
| 20260503002615 | 52 | 319 | 0.0 | 1.0 | 0.00 | 0.00 | 0.00 | 83 | 1009.2 |
| 20260503002115 | 52 | 319 | 0.0 | 1.0 | 0.00 | 0.00 | 0.00 | 83 | 1009.1 |
| 20260503001616 | 52 | 319 | 0.0 | 1.0 | 0.00 | 0.00 | 0.00 | 83 | 1009.2 |
| 20260503001121 | 52 | 319 | 0.0 | 2.0 | 0.00 | 0.00 | 0.00 | 82 | 1009.3 |
| 20260503001116 | 52 | 319 | 0.0 | 1.0 | 0.00 | 0.00 | 0.00 | 83 | 1009.2 |
| 20260503000115 | 52 | 319 | 0.0 | 2.0 | 0.00 | 0.00 | 0.00 | 82 | 1009.2 |
| 20260502235617 | 52 | 317 | 0.0 | 2.0 | 0.00 | 0.00 | 0.00 | 82 | 1009.3 |
| 20260502235117 | 52 | 318 | 0.0 | 2.0 | 0.00 | 0.00 | 0.00 | 81 | 1009.2 |
| 20260502234616 | 52 | 318 | 0.0 | 1.0 | 0.00 | 0.00 | 0.00 | 82 | 1009.2 |
| 20260502234113 | 52 | 318 | 0.0 | 1.0 | 0.00 | 0.00 | 0.00 | 82 | 1009.3 |
| 20260502233613 | 52 | 318 | 0.0 | 1.0 | 0.00 | 0.00 | 0.00 | 81 | 1009.2 |
| 20260502233113 | 52 | 318 | 0.0 | 3.0 | 0.00 | 0.00 | 0.00 | 81 | 1009.1 |
| 20260502232614 | 53 | 318 | 0.0 | 3.0 | 0.00 | 0.00 | 0.00 | 80 | 1009.2 |
| 20260502232113 | 53 | 327 | 0.0 | 2.0 | 0.00 | 0.00 | 0.00 | 80 | 1009.3 |
| 20260502231614 | 53 | 327 | 1.0 | 3.0 | 0.00 | 0.00 | 0.00 | 80 | 1009.2 |
| 20260502231114 | 53 | 186 | 1.0 | 3.0 | 0.00 | 0.00 | 0.00 | 80 | 1009.3 |
| 20260502230620 | 53 | 186 | 1.0 | 4.0 | 0.00 | 0.00 | 0.00 | 80 | 1009.4 |
| 20260502230614 | 53 | 83 | 1.0 | 2.0 | 0.00 | 0.00 | 0.00 | 80 | 1009.3 |
| 20260502225614 | 53 | 186 | 1.0 | 4.0 | 0.00 | 0.00 | 0.00 | 80 | 1009.4 |
| 20260502225110 | 53 | 308 | 1.0 | 3.0 | 0.00 | 0.00 | 0.00 | 79 | 1009.3 |
| 20260502224618 | 53 | 296 | 1.0 | 2.0 | 0.00 | 0.00 | 0.00 | 79 | 1009.0 |
| 20260502224612 | 53 | 297 | 1.0 | 2.0 | 0.00 | 0.00 | 0.00 | 79 | 1009.2 |
| 20260502223619 | 54 | 146 | 1.0 | 2.0 | 0.00 | 0.00 | 0.00 | 79 | 1008.8 |
| 20260502223611 | 53 | 333 | 0.0 | 1.0 | 0.00 | 0.00 | 0.00 | 79 | 1009.0 |
| 20260502223111 | 53 | 333 | 0.0 | 3.0 | 0.00 | 0.00 | 0.00 | 79 | 1008.9 |
| 20260502222613 | 53 | 333 | 1.0 | 3.0 | 0.00 | 0.00 | 0.00 | 79 | 1008.9 |
| 20260502221612 | 54 | 146 | 0.0 | 2.0 | 0.00 | 0.00 | 0.00 | 78 | 1008.9 |
| 20260502221113 | 54 | 146 | 0.0 | 3.0 | 0.00 | 0.00 | 0.00 | 78 | 1008.9 |
| 20260502220610 | 54 | 146 | 1.0 | 3.0 | 0.00 | 0.00 | 0.00 | 77 | 1008.9 |
| 20260502220112 | 54 | 25 | 1.0 | 3.0 | 0.00 | 0.00 | 0.00 | 78 | 1008.9 |
| 20260502215610 | 54 | 355 | 1.0 | 2.0 | 0.00 | 0.00 | 0.00 | 77 | 1008.9 |
| 20260502215112 | 54 | 355 | 1.0 | 2.0 | 0.00 | 0.00 | 0.00 | 77 | 1008.9 |
| 20260502214619 | 54 | 355 | 0.0 | 3.0 | 0.00 | 0.00 | 0.00 | 77 | 1009.0 |
| 20260502214612 | 54 | 355 | 0.0 | 3.0 | 0.00 | 0.00 | 0.00 | 77 | 1008.9 |
| 20260502213614 | 54 | 355 | 1.0 | 3.0 | 0.00 | 0.00 | 0.00 | 77 | 1008.9 |
| 20260502213609 | 54 | 355 | 1.0 | 3.0 | 0.00 | 0.00 | 0.00 | 77 | 1008.9 |
| 20260502212609 | 54 | 355 | 1.0 | 2.0 | 0.00 | 0.00 | 0.00 | 76 | 1009.0 |
| 20260502212116 | 54 | 355 | 1.0 | 4.0 | 0.00 | 0.00 | 0.00 | 76 | 1008.9 |
| 20260502212110 | 54 | 355 | 1.0 | 3.0 | 0.00 | 0.00 | 0.00 | 76 | 1008.9 |
| 20260502211110 | 54 | 66 | 1.0 | 4.0 | 0.00 | 0.00 | 0.00 | 76 | 1008.9 |
| 20260502210610 | 54 | 124 | 1.0 | 3.0 | 0.00 | 0.00 | 0.00 | 76 | 1008.9 |
| 20260502210109 | 55 | 85 | 1.0 | 3.0 | 0.00 | 0.00 | 0.00 | 75 | 1009.0 |
| 20260502205608 | 55 | 49 | 1.0 | 3.0 | 0.00 | 0.00 | 0.00 | 76 | 1009.0 |
| 20260502205111 | 55 | 44 | 1.0 | 4.0 | 0.00 | 0.00 | 0.00 | 76 | 1009.0 |
| 20260502204609 | 55 | 46 | 1.0 | 4.0 | 0.00 | 0.00 | 0.00 | 76 | 1009.0 |
| 20260502204110 | 54 | 104 | 1.0 | 2.0 | 0.00 | 0.00 | 0.00 | 76 | 1009.0 |
| 20260502203615 | 54 | 102 | 1.0 | 2.0 | 0.00 | 0.00 | 0.00 | 75 | 1009.0 |
| 20260502203610 | 55 | 103 | 1.0 | 2.0 | 0.00 | 0.00 | 0.00 | 76 | 1009.0 |
| 20260502202611 | 54 | 355 | 1.0 | 2.0 | 0.00 | 0.00 | 0.00 | 75 | 1009.1 |
| 20260502202110 | 54 | 355 | 1.0 | 3.0 | 0.00 | 0.00 | 0.00 | 75 | 1009.2 |
| 20260502201608 | 54 | 355 | 1.0 | 3.0 | 0.00 | 0.00 | 0.00 | 75 | 1009.3 |
| 20260502201108 | 54 | 42 | 1.0 | 2.0 | 0.00 | 0.00 | 0.00 | 75 | 1009.3 |
| 20260502200609 | 54 | 40 | 1.0 | 3.0 | 0.00 | 0.00 | 0.00 | 75 | 1009.4 |